Location: Arcones
(41.1182°N, 3.7238°W)
Time: 19:47:18
(UTC+00:00)

YAOGAN 1 - Pass Details

Date: 21 March 2026
Orbit: 604 x 606 km, 97.8° (Epoch: 21 April)

Event Time Altitude Azimuth Distance (km) Brightness Sun altitude
Rises 19:08:40 0° 183° (S) 2,848 5.9 -8.4°
Reaches altitude 10° 19:10:55 10° 191° (S) 1,949 5.2 -8.9°
Maximum altitude 19:14:56 41° 262° (W) 885 4.0 -9.6°
Drops below altitude 10° 19:18:58 10° 333° (NNW) 1,963 5.7 -10.4°
Sets 19:21:16 0° 340° (NNW) 2,871 6.4 -10.8°
